map of CMN home
CMN - Airport
Location
City:  Casablanca, Casablanca (Dar el Beda), Morocco
Name:Mohammed V International Airport
ICAO:GMMN
IATA:CMN

Details
Type:Airport (Aerodrome, Airfield)
Use:Public/Civil, International (customs port of entry)
Latitude:3322'03"N (33.367467)
Longitude:735'24"W (-7.589966)
Datum:WGS 1984
Elevation:656 ft (200 m)
Variation:1.93W (WMM2015 magnetic declination)
0.11 annual change
Runways:2
Longest:12205 × 148 ft (3720 × 45 m), paved

Time
Time Zone:UTC+0 (DST+1)
Local Time:

Weather
METAR:GMMN 090900Z 14003KT CAVOK 13/11 Q1027 NOSIG
TAF:GMMN 090500Z 0906/1012 14004KT CAVOK
BECMG 0909/0912 16010KT 9999 SCT020 BKN200

Related Locations
Nearby:
Farthest:KAT: 12304 mi / 19802 km
Kaitaia, NTL, NZ

Find:

   beyond  
but within

Other Information
Maps:
NOTAMs:
Links:
Sources:

  
flag of Morocco   

Sectional Chart

Flight Planning
at skyvector.com

Satellite Image

Google Maps Satellite view

 

Copyright © 2004-2016 Karl L. Swartz. All rights reserved.
The Great Circle Mapper name and logo are trademarks of the Great Circle Mapper.
All other trademarks mentioned herein belong to their respective owners.
Please see credits for attibutions and further copyright information.

  Follow gcmap on Facebook Follow gcmap on Twitter Follow gcmap on Google+ GCmap on LinkedIn

hCard Microformat

Geo Microformat